THURAYA-3

Last updated on Thu Nov 21 2024 00:02:41 GMT+0000 (Coordinated Universal Time)

1 32404U 08001A 24325.54802831 -.00000301 00000+0 00000+0 0 9992 2 32404 5.0714 33.6174 0002731 218.6887 103.5364 1.00270325 61738
UTC large
Height (km)
Speed (km/s)
/
Latitude / Longitude
Inclination (degrees)
Orbital Period (minutes)
Azimuth
Elevation
Range (km)
Doppler Factor

Next 0 passes for location: London (51.5072 / 0.1276)

Sorry there are no passes over London.